sat.trackr.live / text

‹ back to catalog

KOSTKA

NORAD 69935 · 2026-156BU

PAYLOAD ACTIVE UNKNOWN

§ Identity

Operator
Country
CZCH
Launch date
2026-07-07
Launch site
AFWTR
Launch vehicle
Mass (kg)
RCS (m²)

External: N2YO · Heavens-Above · Gunter

§ Orbital elements

Epoch: 2026-09-19T22:57:12.324096Z

Period
96.47 min
Inclination
97.7396°
Eccentricity
0.0008265
Mean motion
14.92735806 rev/d
Perigee alt
583.7 km
Apogee alt
595.2 km
Semi-major
6,967.5 km
B*
1.6498e-4
RAAN
162.2012°
Arg perigee
267.2085°
Mean anomaly
92.8189°
Rev number
1,113

§ Raw data

KOSTKA1 69935U 26156BU  26262.95639264  .00001648  00000+0  16498-3 0  99932 69935  97.7396 162.2012 0008265 267.2085  92.8189 14.92735806 11138

JSON: /api/v1/satellites/69935 · /tle

For live sub-satellite position, see the globe view (requires WebGL).

§ Visibility from observer

Set your observer location to see the next 7 days of passes ≥ 10°. The values pass through the URL so the page stays shareable.

No JS? Fill the form by hand. The geolocation button needs JavaScript.